FW1574 Weather Reports


Display with metric or nautical units.
time (UTC)temp
F
wind
direction
speed
MPH
gust
MPH
rain 1hr
in
rain 24hr
in
rain mn
in
humidity
%
barometer
mb
20260903013526 79 86 0.0 0.0 0.00 0.00 0.00 84 1015.3
20260903013026 80 86 0.0 0.0 0.00 0.00 0.00 84 1015.3
20260903012525 80 86 0.0 0.0 0.00 0.00 0.00 83 1015.3
20260903012025 80 86 0.0 0.0 0.00 0.00 0.00 82 1015.1
20260903011525 80 86 0.0 0.0 0.00 0.00 0.00 82 1015.1
20260903011028 81 86 0.0 0.0 0.00 0.00 0.00 82 1015.0
20260903010523 81 86 0.0 0.0 0.00 0.00 0.00 81 1014.9
20260903010028 82 86 0.0 0.0 0.00 0.00 0.00 80 1014.9
20260903005524 82 86 0.0 0.0 0.00 0.00 0.00 81 1014.9
20260903005023 82 86 0.0 0.0 0.00 0.00 0.00 79 1014.9
20260903004523 83 86 0.0 0.0 0.00 0.00 0.00 76 1014.8
20260903004023 83 86 0.0 0.0 0.00 0.00 0.00 76 1014.8
20260903003522 83 86 0.0 0.0 0.00 0.00 0.00 76 1014.7
20260903003023 84 86 0.0 0.0 0.00 0.00 0.00 73 1014.7
20260903002523 84 86 0.0 0.0 0.00 0.00 0.00 73 1014.7
20260903002027 84 86 0.0 0.0 0.00 0.00 0.00 74 1014.7
20260903001522 84 86 0.0 0.0 0.00 0.00 0.00 73 1014.7
20260903001026 85 86 0.0 0.0 0.00 0.00 0.00 72 1014.7
20260903000521 86 86 0.0 0.0 0.00 0.00 0.00 70 1014.6
20260903000021 86 86 0.0 0.0 0.00 0.00 0.00 68 1014.6
20260902235520 86 86 0.0 0.0 0.00 0.00 0.00 67 1014.5
20260902235021 87 86 0.0 0.0 0.00 0.00 0.00 69 1014.5
20260902234520 87 86 0.0 0.0 0.00 0.00 0.00 67 1014.6
20260902234020 88 86 0.0 0.0 0.00 0.00 0.00 66 1014.6
20260902233520 88 86 0.0 0.0 0.00 0.00 0.00 65 1014.6
20260902233020 89 86 0.0 0.0 0.00 0.00 0.00 61 1014.5
20260902232519 89 86 0.0 0.0 0.00 0.00 0.00 62 1014.5
20260902232019 89 86 0.0 0.0 0.00 0.00 0.00 61 1014.6
20260902231524 90 86 0.0 0.0 0.00 0.00 0.00 60 1014.5
20260902231019 90 86 0.0 0.0 0.00 0.00 0.00 58 1014.6
20260902230521 90 86 0.0 0.0 0.00 0.00 0.00 58 1014.6
20260902230017 91 86 0.0 0.0 0.00 0.00 0.00 57 1014.6
20260902225521 91 86 0.0 0.0 0.00 0.00 0.00 58 1014.6
20260902225017 91 86 0.0 0.0 0.00 0.00 0.00 56 1014.6
20260902224516 91 86 0.0 0.0 0.00 0.00 0.00 56 1014.7
20260902224015 92 86 0.0 0.0 0.00 0.00 0.00 56 1014.7
20260902223514 93 86 0.0 0.0 0.00 0.00 0.00 54 1014.7
20260902223020 93 86 0.0 0.0 0.00 0.00 0.00 53 1014.7
20260902222516 93 86 0.0 0.0 0.00 0.00 0.00 52 1014.7
20260902222016 93 86 0.0 0.0 0.00 0.00 0.00 53 1014.7
20260902221519 94 85 0.0 0.0 0.00 0.00 0.00 54 1014.7
20260902221013 94 110 0.0 0.0 0.00 0.00 0.00 51 1014.8
20260902220512 94 93 0.0 0.0 0.00 0.00 0.00 53 1014.8
20260902220012 94 91 0.0 0.0 0.00 0.00 0.00 53 1014.8
20260902215512 94 19 0.0 0.0 0.00 0.00 0.00 52 1014.8
20260902215013 93 37 0.0 0.0 0.00 0.00 0.00 51 1014.8
20260902214519 93 17 0.0 0.0 0.00 0.00 0.00 52 1014.8
20260902214013 94 17 0.0 0.0 0.00 0.00 0.00 52 1014.7
20260902213511 94 38 0.0 0.0 0.00 0.00 0.00 53 1014.8
20260902213014 94 67 0.0 0.0 0.00 0.00 0.00 49 1014.8
20260902212510 94 67 0.0 0.0 0.00 0.00 0.00 49 1014.8
20260902212010 94 67 0.0 0.0 0.00 0.00 0.00 51 1014.8
20260902211509 94 83 0.0 0.0 0.00 0.00 0.00 50 1014.9
20260902211010 94 19 0.0 0.0 0.00 0.00 0.00 51 1015.0
20260902210509 94 107 0.0 0.0 0.00 0.00 0.00 53 1014.9
20260902210009 94 107 0.0 0.0 0.00 0.00 0.00 48 1015.0
20260902205510 94 300 0.0 0.0 0.00 0.00 0.00 53 1015.0
20260902205007 94 301 0.0 0.0 0.00 0.00 0.00 55 1015.0
20260902204509 94 286 0.0 0.0 0.00 0.00 0.00 53 1015.1
20260902204006 94 302 0.0 0.0 0.00 0.00 0.00 54 1015.1
20260902203506 94 316 0.0 0.0 0.00 0.00 0.00 53 1015.1
20260902203006 94 324 0.0 0.0 0.00 0.00 0.00 52 1015.2
20260902202505 95 33 0.0 0.0 0.00 0.00 0.00 53 1015.2
20260902202005 94 22 0.0 0.0 0.00 0.00 0.00 53 1015.3
20260902201505 94 51 0.0 0.0 0.00 0.00 0.00 53 1015.3
20260902201004 94 90 0.0 0.0 0.00 0.00 0.00 53 1015.3
20260902200505 94 314 0.0 0.0 0.00 0.00 0.00 56 1015.4
20260902200003 94 280 0.0 0.0 0.00 0.00 0.00 55 1015.4
20260902195503 94 224 0.0 0.0 0.00 0.00 0.00 57 1015.5
20260902195002 94 133 0.0 0.0 0.00 0.00 0.00 54 1015.6
20260902194503 94 272 0.0 0.0 0.00 0.00 0.00 53 1015.7
20260902194104 94 113 0.0 0.0 0.00 0.00 0.00 53 1015.7
20260902193559 94 107 0.0 0.0 0.00 0.00 0.00 53 1015.8
20260902193100 94 84 0.0 0.0 0.00 0.00 0.00 54 1015.9
20260902192559 94 280 0.0 0.0 0.00 0.00 0.00 53 1016.0
20260902192058 94 134 0.0 0.0 0.00 0.00 0.00 53 1016.0
20260902191558 94 89 0.0 0.0 0.00 0.00 0.00 54 1016.1
20260902191056 94 27 0.0 0.0 0.00 0.00 0.00 53 1016.2
20260902190555 94 277 0.0 0.0 0.00 0.00 0.00 53 1016.2
20260902190055 94 305 0.0 0.0 0.00 0.00 0.00 53 1016.3
20260902185558 93 180 0.0 0.0 0.00 0.00 0.00 56 1016.4
20260902185054 93 211 0.0 0.0 0.00 0.00 0.00 55 1016.5
20260902184554 94 271 0.0 0.0 0.00 0.00 0.00 58 1016.5
20260902184053 93 280 0.0 0.0 0.00 0.00 0.00 57 1016.5
20260902183553 93 110 0.0 0.0 0.00 0.00 0.00 57 1016.5
20260902183053 93 19 0.0 0.0 0.00 0.00 0.00 57 1016.6
20260902182552 93 259 0.0 0.0 0.00 0.00 0.00 52 1016.6
20260902182051 93 19 0.0 0.0 0.00 0.00 0.00 56 1016.8
20260902181551 93 281 0.0 0.0 0.00 0.00 0.00 58 1016.7
20260902181051 92 123 0.0 0.0 0.00 0.00 0.00 57 1016.7
20260902180550 93 355 0.0 0.0 0.00 0.00 0.00 59 1016.8
20260902180053 93 277 0.0 0.0 0.00 0.00 0.00 59 1016.9
20260902175550 93 317 0.0 0.0 0.00 0.00 0.00 58 1017.0
20260902175049 92 13 0.0 0.0 0.00 0.00 0.00 60 1017.1
20260902174548 92 360 0.0 0.0 0.00 0.00 0.00 59 1017.2
20260902174048 92 113 0.0 0.0 0.00 0.00 0.00 60 1017.2
20260902173548 92 71 0.0 0.0 0.00 0.00 0.00 61 1017.2
20260902173048 92 35 0.0 0.0 0.00 0.00 0.00 62 1017.3
20260902172548 92 110 0.0 0.0 0.00 0.00 0.00 64 1017.4
20260902172049 91 293 0.0 0.0 0.00 0.00 0.00 63 1017.5
20260902171546 91 138 0.0 0.0 0.00 0.00 0.00 65 1017.6
20260902171044 90 267 0.0 0.0 0.00 0.00 0.00 65 1017.7
20260902170543 90 227 0.0 0.0 0.00 0.00 0.00 64 1017.8
20260902170043 90 245 0.0 0.0 0.00 0.00 0.00 64 1017.8
20260902165543 90 338 0.0 0.0 0.00 0.00 0.00 67 1017.9
20260902165042 89 348 0.0 0.0 0.00 0.00 0.00 66 1017.9
20260902164541 89 318 0.0 0.0 0.00 0.00 0.00 69 1018.1
20260902164040 88 230 0.0 0.0 0.00 0.00 0.00 67 1018.1
20260902163539 89 253 0.0 0.0 0.00 0.00 0.00 70 1018.2
20260902163042 88 279 0.0 0.0 0.00 0.00 0.00 71 1018.3
20260902162538 88 273 0.0 0.0 0.00 0.00 0.00 72 1018.3
20260902162038 88 311 0.0 0.0 0.00 0.00 0.00 71 1018.3
20260902161541 88 316 0.0 0.0 0.00 0.00 0.00 71 1018.4
20260902161037 88 336 0.0 0.0 0.00 0.00 0.00 71 1018.5
20260902160535 88 265 0.0 0.0 0.00 0.00 0.00 72 1018.5
20260902160035 87 235 0.0 0.0 0.00 0.00 0.00 72 1018.5
20260902155535 87 215 0.0 0.0 0.00 0.00 0.00 70 1018.6
20260902155037 87 298 0.0 0.0 0.00 0.00 0.00 71 1018.7
20260902154533 87 355 0.0 0.0 0.00 0.00 0.00 72 1018.6
20260902154032 86 264 0.0 0.0 0.00 0.00 0.00 75 1018.7
20260902153531 86 264 0.0 0.0 0.00 0.00 0.00 74 1018.8
20260902153030 86 335 0.0 0.0 0.00 0.00 0.00 73 1018.8
20260902152529 86 170 0.0 0.0 0.00 0.00 0.00 71 1018.8
20260902152029 85 102 0.0 0.0 0.00 0.00 0.00 74 1018.9
20260902151530 85 32 0.0 0.0 0.00 0.00 0.00 75 1018.9
20260902151027 85 76 0.0 0.0 0.00 0.00 0.00 77 1018.9
20260902150524 84 96 0.0 0.0 0.00 0.00 0.00 78 1018.9
20260902150023 84 271 0.0 0.0 0.00 0.00 0.00 78 1018.8
20260902145523 83 355 0.0 0.0 0.00 0.00 0.00 79 1018.8
20260902145022 83 17 0.0 0.0 0.00 0.00 0.00 78 1018.8
20260902144522 83 90 0.0 0.0 0.00 0.00 0.00 78 1018.8
20260902144021 83 125 0.0 0.0 0.00 0.00 0.00 78 1018.8
20260902143524 82 348 0.0 0.0 0.00 0.00 0.00 80 1018.7
20260902143019 82 5 0.0 0.0 0.00 0.00 0.00 80 1018.7
20260902142521 82 344 0.0 0.0 0.00 0.00 0.00 82 1018.7
20260902142118 81 310 0.0 0.0 0.00 0.00 0.00 82 1018.7
20260902141516 81 90 0.0 0.0 0.00 0.00 0.00 84 1018.7
20260902141016 81 82 0.0 0.0 0.00 0.00 0.00 84 1018.7
20260902140514 80 241 0.0 0.0 0.00 0.00 0.00 87 1018.7
20260902140015 80 33 0.0 0.0 0.00 0.00 0.00 87 1018.7
20260902135511 79 67 0.0 0.0 0.00 0.00 0.00 90 1018.7
20260902135010 79 44 0.0 0.0 0.00 0.00 0.00 92 1018.9
20260902134517 77 98 0.0 0.0 0.00 0.00 0.00 95 1018.9
20260902134007 75 98 0.0 0.0 0.00 0.00 0.00 97 1018.9
20260902133509 75 98 0.0 0.0 0.00 0.00 0.00 97 1018.8
20260902133006 75 98 0.0 0.0 0.00 0.00 0.00 97 1018.9
20260902132509 74 98 0.0 0.0 0.00 0.00 0.00 97 1018.9
20260902132006 74 98 0.0 0.0 0.00 0.00 0.00 97 1018.9
20260902131506 74 98 0.0 0.0 0.00 0.00 0.00 97 1018.9
20260902131006 73 98 0.0 0.0 0.00 0.00 0.00 97 1018.9
20260902130505 73 98 0.0 0.0 0.00 0.00 0.00 97 1018.8
20260902130004 73 98 0.0 0.0 0.00 0.00 0.00 97 1018.7
20260902125504 72 98 0.0 0.0 0.00 0.00 0.00 97 1018.7
20260902125006 72 98 0.0 0.0 0.00 0.00 0.00 97 1018.7
20260902124504 72 98 0.0 0.0 0.00 0.00 0.00 97 1018.7
20260902124003 72 98 0.0 0.0 0.00 0.00 0.00 96 1018.7
20260902123503 72 98 0.0 0.0 0.00 0.00 0.00 96 1018.8
20260902123003 71 98 0.0 0.0 0.00 0.00 0.00 96 1018.7
20260902122504 71 98 0.0 0.0 0.00 0.00 0.00 96 1018.7
20260902122001 71 98 0.0 0.0 0.00 0.00 0.00 96 1018.6
20260902121505 71 98 0.0 0.0 0.00 0.00 0.00 96 1018.6
20260902121001 71 98 0.0 0.0 0.00 0.00 0.00 96 1018.6
20260902120600 71 98 0.0 0.0 0.00 0.00 0.00 96 1018.5
20260902120101 71 98 0.0 0.0 0.00 0.00 0.00 96 1018.3
20260902115559 71 98 0.0 0.0 0.00 0.00 0.00 96 1018.2
20260902115058 71 98 0.0 0.0 0.00 0.00 0.00 96 1018.2
20260902114558 70 98 0.0 0.0 0.00 0.00 0.00 96 1018.2
20260902114057 70 98 0.0 0.0 0.00 0.00 0.00 96 1018.0
20260902113556 70 98 0.0 0.0 0.00 0.00 0.00 95 1018.0
20260902113058 70 98 0.0 0.0 0.00 0.00 0.00 95 1017.9
20260902112556 70 98 0.0 0.0 0.00 0.00 0.00 96 1017.9
20260902112059 70 98 0.0 0.0 0.00 0.00 0.00 96 1017.9
20260902111556 70 98 0.0 0.0 0.00 0.00 0.00 96 1017.9
20260902111054 70 98 0.0 0.0 0.00 0.00 0.00 95 1017.7
20260902110554 70 98 0.0 0.0 0.00 0.00 0.00 96 1017.7
20260902110058 70 98 0.0 0.0 0.00 0.00 0.00 96 1017.7
20260902105555 71 98 0.0 0.0 0.00 0.00 0.00 95 1017.7
20260902105053 71 98 0.0 0.0 0.00 0.00 0.00 95 1017.6
20260902104616 71 98 0.0 0.0 0.00 0.00 0.00 95 1017.7
20260902104052 71 98 0.0 0.0 0.00 0.00 0.00 95 1017.6
20260902103552 71 98 0.0 0.0 0.00 0.00 0.00 95 1017.7
20260902103052 71 98 0.0 0.0 0.00 0.00 0.00 95 1017.7
20260902102553 71 98 0.0 0.0 0.00 0.00 0.00 95 1017.7
20260902102054 71 98 0.0 0.0 0.00 0.00 0.00 95 1017.6
20260902101550 71 98 0.0 0.0 0.00 0.00 0.00 95 1017.6
20260902101049 71 98 0.0 0.0 0.00 0.00 0.00 95 1017.5
20260902100551 71 98 0.0 1.0 0.00 0.00 0.00 95 1017.5
20260902100107 71 98 0.0 2.0 0.00 0.00 0.00 95 1017.5
20260902095551 71 98 0.0 2.0 0.00 0.00 0.00 95 1017.4
20260902095047 71 98 0.0 0.0 0.00 0.00 0.00 95 1017.3
20260902094546 71 98 0.0 0.0 0.00 0.00 0.00 95 1017.3
20260902094046 71 98 0.0 0.0 0.00 0.00 0.00 96 1017.3
20260902093545 71 98 0.0 0.0 0.00 0.00 0.00 96 1017.2
20260902093048 71 98 0.0 0.0 0.00 0.00 0.00 96 1017.2
20260902092546 71 98 0.0 0.0 0.00 0.00 0.00 96 1017.2
20260902092044 71 98 0.0 0.0 0.00 0.00 0.00 96 1017.1
20260902091543 71 98 0.0 0.0 0.00 0.00 0.00 96 1017.0
20260902091045 71 98 0.0 0.0 0.00 0.00 0.00 96 1017.0
20260902090543 71 98 0.0 0.0 0.00 0.00 0.00 96 1017.0
20260902090043 71 98 0.0 0.0 0.00 0.00 0.00 96 1017.0
20260902085542 71 98 0.0 0.0 0.00 0.00 0.00 96 1017.0
20260902085041 71 98 0.0 1.0 0.00 0.00 0.00 96 1017.0
20260902084542 71 98 0.0 2.0 0.00 0.00 0.00 96 1016.9
20260902084042 71 98 0.0 1.0 0.00 0.00 0.00 96 1016.8
20260902083541 71 98 0.0 2.0 0.00 0.00 0.00 96 1016.7
20260902083050 71 98 0.0 2.0 0.00 0.00 0.00 96 1016.7
20260902082540 71 98 0.0 1.0 0.00 0.00 0.00 95 1016.6
20260902082040 72 98 0.0 1.0 0.00 0.00 0.00 95 1016.7
20260902081603 72 98 0.0 0.0 0.00 0.00 0.00 96 1016.6
20260902081039 72 98 0.0 0.0 0.00 0.00 0.00 96 1016.5
20260902080543 72 98 0.0 0.0 0.00 0.00 0.00 96 1016.4
20260902080048 72 98 0.0 0.0 0.00 0.00 0.00 96 1016.4
20260902075538 72 98 0.0 0.0 0.00 0.00 0.00 96 1016.5
20260902075037 72 98 0.0 0.0 0.00 0.00 0.00 96 1016.4
20260902074539 72 98 0.0 0.0 0.00 0.00 0.00 96 1016.4
20260902074037 72 98 0.0 0.0 0.00 0.00 0.00 96 1016.5
20260902073538 72 98 0.0 0.0 0.00 0.00 0.00 96 1016.6
20260902073037 72 98 0.0 0.0 0.00 0.00 0.00 96 1016.6
20260902072535 72 98 0.0 0.0 0.00 0.00 0.00 96 1016.6
20260902072038 72 98 0.0 0.0 0.00 0.00 0.00 96 1016.6
20260902071538 72 98 0.0 0.0 0.00 0.00 0.00 96 1016.7
20260902071035 72 98 0.0 0.0 0.00 0.00 0.00 96 1016.8
20260902070534 72 98 0.0 0.0 0.00 0.00 0.00 96 1016.7
20260902070037 72 98 0.0 0.0 0.00 0.00 0.00 96 1016.6
20260902065537 72 98 0.0 0.0 0.00 0.00 0.00 96 1016.7
20260902065036 72 98 0.0 0.0 0.00 0.00 0.00 96 1016.7
20260902064535 72 98 0.0 0.0 0.00 0.00 0.00 96 1016.7
20260902064033 72 98 0.0 1.0 0.00 0.00 0.00 96 1016.7
20260902063534 72 98 0.0 1.0 0.00 0.00 0.00 95 1016.7
20260902063037 72 98 0.0 0.0 0.00 0.00 0.00 95 1016.7
20260902062533 72 98 0.0 0.0 0.00 0.00 0.00 95 1016.7
20260902062033 72 98 0.0 1.0 0.00 0.00 0.00 95 1016.7
20260902061532 72 98 0.0 1.0 0.00 0.00 0.00 95 1016.9
20260902061037 72 98 0.0 0.0 0.00 0.00 0.00 95 1016.9
20260902060530 73 98 0.0 0.0 0.00 0.00 0.00 95 1016.8
20260902060033 73 98 0.0 0.0 0.00 0.00 0.00 95 1016.7
20260902055530 73 98 0.0 0.0 0.00 0.00 0.00 95 1016.8
20260902055030 73 98 0.0 0.0 0.00 0.00 0.00 95 1016.8
20260902054528 73 98 0.0 0.0 0.00 0.00 0.00 95 1016.8
20260902054028 73 98 0.0 0.0 0.00 0.00 0.00 94 1016.7
20260902053528 73 98 0.0 0.0 0.00 0.00 0.00 94 1016.8
20260902053028 73 98 0.0 0.0 0.00 0.00 0.00 94 1016.8
20260902052527 73 98 0.0 0.0 0.00 0.00 0.00 94 1016.7
20260902052027 73 98 0.0 0.0 0.00 0.00 0.00 94 1016.7
20260902051527 73 98 0.0 0.0 0.00 0.00 0.00 94 1016.8
20260902051030 73 98 0.0 0.0 0.00 0.00 0.00 94 1016.7
20260902050527 73 98 0.0 0.0 0.00 0.00 0.00 94 1016.7
20260902050026 73 98 0.0 0.0 0.00 0.00 0.00 94 1016.6
20260902045525 73 98 0.0 0.0 0.00 0.00 0.00 94 1016.7
20260902045025 73 98 0.0 0.0 0.00 0.00 0.00 93 1016.7
20260902044538 73 98 0.0 0.0 0.00 0.00 0.00 93 1016.7
20260902044025 73 98 0.0 0.0 0.00 0.00 0.00 93 1016.7
20260902043524 73 98 0.0 0.0 0.00 0.00 0.00 93 1016.7
20260902043023 74 98 0.0 0.0 0.00 0.00 0.00 93 1016.7
20260902042523 74 98 0.0 0.0 0.00 0.00 0.00 93 1016.7
20260902042022 74 98 0.0 0.0 0.00 0.00 0.00 92 1016.7
20260902041522 74 98 0.0 0.0 0.00 0.00 0.00 92 1016.7
20260902041020 75 98 0.0 0.0 0.00 0.00 0.00 92 1016.7
20260902040519 75 98 0.0 0.0 0.00 0.00 0.00 92 1016.7
20260902040018 75 98 0.0 0.0 0.00 0.00 0.00 92 1016.7
20260902035517 75 98 0.0 0.0 0.00 0.00 0.00 91 1016.8
20260902035017 75 98 0.0 0.0 0.00 0.00 0.00 91 1016.8
20260902034517 75 98 0.0 0.0 0.00 0.00 0.00 91 1016.8
20260902034017 75 98 0.0 0.0 0.00 0.00 0.00 91 1016.7
20260902033517 75 98 0.0 0.0 0.00 0.00 0.00 91 1016.8
20260902033017 75 98 0.0 0.0 0.00 0.00 0.00 90 1016.8
20260902032521 75 98 0.0 0.0 0.00 0.00 0.00 90 1016.8
20260902032017 75 98 0.0 0.0 0.00 0.00 0.00 90 1016.8
20260902031525 75 98 0.0 0.0 0.00 0.00 0.00 90 1016.8
20260902031017 76 98 0.0 0.0 0.00 0.00 0.00 90 1016.8
20260902030516 76 98 0.0 1.0 0.00 0.00 0.00 89 1016.8
20260902030016 76 98 0.0 1.0 0.00 0.00 0.00 89 1016.9
20260902025516 76 98 0.0 0.0 0.00 0.00 0.00 89 1016.8
20260902025016 76 98 0.0 0.0 0.00 0.00 0.00 89 1016.9
20260902024516 76 98 0.0 0.0 0.00 0.00 0.00 89 1016.8
20260902024017 77 98 0.0 0.0 0.00 0.00 0.00 88 1016.8
20260902023515 77 98 0.0 0.0 0.00 0.00 0.00 87 1016.8
20260902023015 77 98 0.0 0.0 0.00 0.00 0.00 88 1016.8
20260902022515 77 98 0.0 0.0 0.00 0.00 0.00 87 1016.7
20260902022015 77 98 0.0 0.0 0.00 0.00 0.00 87 1016.8
20260902021520 77 98 0.0 0.0 0.00 0.00 0.00 86 1016.7
20260902021016 78 98 0.0 0.0 0.00 0.00 0.00 86 1016.7
20260902020516 78 98 0.0 0.0 0.00 0.00 0.00 85 1016.7
20260902020014 78 98 0.0 0.0 0.00 0.00 0.00 85 1016.6
20260902015514 78 98 0.0 0.0 0.00 0.00 0.00 86 1016.5
20260902015014 78 98 0.0 0.0 0.00 0.00 0.00 86 1016.4
20260902014534 78 98 0.0 0.0 0.00 0.00 0.00 85 1016.4
20260902014013 78 98 0.0 0.0 0.00 0.00 0.00 85 1016.4